This is the latest recevied weather packets stored in our database for station/object LU8FCJ-5. If no packets are shown the sender has not sent any weather packets the latest 10 day(s).
| Time | Temp. | Humidity | Pressure | Rain* | Wind** | Luminosity | Snow |
|---|---|---|---|---|---|---|---|
| 1778259179 | 13.33° C | 38% | 1008.3 hPa | 0 mm | - | - | - |
| 1778258869 | 13.89° C | 36% | 1008.4 hPa | 0 mm | - | - | - |
| 1778258559 | 13.33° C | 37% | 1008.3 hPa | 0 mm | - | - | - |
| 1778258249 | 13.33° C | 37% | 1008.3 hPa | 0 mm | - | - | - |
| 1778257938 | 13.89° C | 37% | 1008.2 hPa | 0 mm | - | - | - |
| 1778257629 | 13.89° C | 38% | 1008.3 hPa | 0 mm | - | - | - |
| 1778257319 | 13.33° C | 37% | 1008.3 hPa | 0 mm | - | - | - |
| 1778257008 | 14.44° C | 36% | 1008.7 hPa | 0 mm | - | - | - |
| 1778256698 | 13.33° C | 38% | 1008.9 hPa | 0 mm | - | - | - |
| 1778256388 | 13.33° C | 37% | 1008.6 hPa | 0 mm | - | - | - |
| 1778256079 | 12.78° C | 39% | 1008.5 hPa | 0 mm | - | - | - |
| 1778255768 | 13.33° C | 40% | 1008.8 hPa | 0 mm | - | - | - |
| 1778255457 | 12.78° C | 40% | 1008.8 hPa | 0 mm | - | - | - |
| 1778255147 | 12.78° C | 40% | 1008.8 hPa | 0 mm | - | - | - |
| 1778254837 | 12.78° C | 40% | 1008.9 hPa | 0 mm | - | - | - |
| 1778254526 | 13.33° C | 41% | 1009.1 hPa | 0 mm | - | - | - |
| 1778254216 | 12.78° C | 40% | 1009.1 hPa | 0 mm | - | - | - |
| 1778253908 | 12.78° C | 41% | 1009 hPa | 0 mm | - | - | - |
| 1778253596 | 12.22° C | 42% | 1009.1 hPa | 0 mm | - | - | - |
| 1778253286 | 12.78° C | 42% | 1009.2 hPa | 0 mm | - | - | - |
| 1778252976 | 12.22° C | 42% | 1009.2 hPa | 0 mm | - | - | - |
| 1778252666 | 12.22° C | 42% | 1009.2 hPa | 0 mm | - | - | - |
| 1778252356 | 11.67° C | 43% | 1009.1 hPa | 0 mm | - | - | - |
| 1778252046 | 11.67° C | 44% | 1009.5 hPa | 0 mm | - | - | - |
| 1778251736 | 11.67° C | 43% | 1009.4 hPa | 0 mm | - | - | - |
* Rain latest hour (hover to see other rain measurements)
** Current wind speed in m/s (hover to see current wind gust speed)